Location: Baller�as
(41.9020°N, 0.1554°W)
Time: 23:55:02
(UTC+00:00)

IRIDIUM 114 - Pass Details

Date: 10 August 2020
Orbit: 776 x 779 km, 86.4° (Epoch: 22 September)

Event Time Altitude Azimuth Distance (km) Brightness Sun altitude
Rises 20:05:16 0° 178° (S) 3,246 7.2 -10.5°
Reaches altitude 10° 20:07:36 10° 177° (S) 2,323 6.5 -10.8°
Maximum altitude 20:12:48 80° 92° (E) 797 4.3 -11.7°
Drops below altitude 10° 20:18:03 10° 5° (N) 2,341 7.2 -12.5°
Sets 20:20:24 0° 5° (N) 3,273 8.0 -12.8°
